This is the latest recevied weather packets stored in our database for station/object SQ7FJB-2. If no packets are shown the sender has not sent any weather packets the latest 10 day(s).
| Time | Temp. | Humidity | Pressure | Rain* | Wind** | Luminosity | Snow |
|---|---|---|---|---|---|---|---|
| 1778019828 | 10° C | 68% | 1004.9 hPa | 0 mm | - | - | - |
| 1778019216 | 10.56° C | 67% | 1004.9 hPa | 0 mm | - | - | - |
| 1778018616 | 10.56° C | 65% | 1004.9 hPa | 0 mm | - | - | - |
| 1778018004 | 11.67° C | 60% | 1005 hPa | 0 mm | - | - | - |
| 1778017403 | 11.67° C | 62% | 1005 hPa | 0 mm | - | - | - |
| 1778016791 | 12.22° C | 58% | 1005 hPa | 0 mm | - | - | - |
| 1778016191 | 12.22° C | 57% | 1005 hPa | 0 mm | - | - | - |
| 1778015578 | 13.33° C | 52% | 1004.8 hPa | 0 mm | - | - | - |
| 1778014966 | 14.44° C | 45% | 1004.8 hPa | 0 mm | - | - | - |
| 1778014366 | 13.89° C | 45% | 1004.8 hPa | 0 mm | - | - | - |
| 1778013766 | 13.33° C | 50% | 1004.8 hPa | 0 mm | - | - | - |
| 1778013154 | 13.89° C | 46% | 1004.8 hPa | 0 mm | - | - | - |
| 1778012553 | 13.33° C | 52% | 1004.7 hPa | 0 mm | - | - | - |
| 1778011941 | 13.89° C | 47% | 1004.7 hPa | 0 mm | - | - | - |
| 1778011340 | 14.44° C | 47% | 1004.6 hPa | 0 mm | - | - | - |
| 1778010729 | 15° C | 46% | 1004.5 hPa | 0 mm | - | - | - |
| 1778010128 | 13.89° C | 47% | 1004.6 hPa | 0 mm | - | - | - |
| 1778009516 | 13.89° C | 50% | 1004.7 hPa | 0 mm | - | - | - |
| 1778008916 | 14.44° C | 49% | 1004.7 hPa | 0 mm | - | - | - |
| 1778008316 | 14.44° C | 49% | 1004.6 hPa | 0 mm | - | - | - |
| 1778007716 | 15.56° C | 45% | 1004.7 hPa | 0 mm | - | - | - |
| 1778007103 | 16.11° C | 41% | 1004.6 hPa | 0 mm | - | - | - |
| 1778006491 | 16.67° C | 38% | 1004.6 hPa | 0 mm | - | - | - |
| 1778005891 | 17.22° C | 39% | 1004.6 hPa | 0 mm | - | - | - |
| 1778005290 | 16.67° C | 42% | 1004.6 hPa | 0 mm | - | - | - |
* Rain latest hour (hover to see other rain measurements)
** Current wind speed in m/s (hover to see current wind gust speed)